Regional Weather Roundup
Issued by NWS

Home | Current Version | Previous Version | Text Only | Print | Product List | Glossary On
Versions: 1 2 3 4 5 6 7 8 9 10 11 12 13 14 15 16 17 18 19 20 21 22 23 24 25 26 27 28 29 30 31 32 33 34 35 36 37 38 39 40 41 42 43 44 45 46 47 48 49 50
000
ASUS44 KJAN 132110
RWRMS

MISSISSIPPI HOURLY WEATHER ROUNDUP
NATIONAL WEATHER SERVICE JACKSON MS
300 PM CST SAT FEB 13 2016

NOTE: "FAIR: INDICATES FEW OR NO CLOUDS BELOW 12,000 FEET WITH NO
SIGNIFICANT WEATHER AND/OR OBSTRUCTIONS TO VISIBILITY.

MSZ001>002-007>008-010>013-018>021-025>028-034>036-132200-
NORTHWEST MISSISSIPPI

CITY           SKY/WX    TMP DP  RH WIND       PRES   REMARKS
CLEVELAND      FAIR      44  16  32 NE10      30.45F
GREENWOOD      SUNNY     48   7  18 NE8       30.44F
GREENVILLE     SUNNY     47  13  25 NE16      30.44F
OLIVE BRANCH   MOSUNNY   36   9  32 N10       30.46F WCI  28
OXFORD         FAIR      41   3  20 NE7       30.46F
TUNICA         CLEAR     37  10  32 N9G16     30.49F WCI  31
$$

MSZ003>006-009-014>017-022>024-029>033-037>039-132200-
NORTHEAST MISSISSIPPI

CITY           SKY/WX    TMP DP  RH WIND       PRES   REMARKS
COLUMBUS AFB   SUNNY     45   9  23 VRB6G17   30.42F
CORINTH        FAIR      37   3  23 E8        30.47F WCI  31
GOLDN TRIANGLE SUNNY     46  10  23 N7        30.42
STARKVILLE     FAIR      45  14  29 N6        30.44F
TUPELO         SUNNY     42   6  22 N12       30.46F
$$

MSZ040-058-132200-
CENTRAL MISSISSIPPI

CITY           SKY/WX    TMP DP  RH WIND       PRES   REMARKS
JACKSON INTL   SUNNY     53  16  23 N10       30.40F
JACKSON HAWKNS SUNNY     53  13  20 N6        30.39F
MERIDIAN KEY   SUNNY     51  10  19 NE10      30.40S
MERIDIAN NAS   SUNNY     49  11  21 N9G18     30.41F
VICKSBURG      SUNNY     52  20  28 N9        30.41F
$$

MSZ059>079-132200-
SOUTH MISSISSIPPI

CITY           SKY/WX    TMP DP  RH WIND       PRES   REMARKS
BROOKHAVEN     FAIR      70  39  32 N9        30.37F
HATTIESBURG    SUNNY     58  21  24 N7        30.37F
MCCOMB         SUNNY     60  31  33 N6        30.35F
NATCHEZ        SUNNY     57  30  35 N10       30.37F
PINE BELT      SUNNY     55  19  24 N7        30.37F
$$

MSZ080>082-132200-
COASTAL MISSISSIPPI

CITY           SKY/WX    TMP DP  RH WIND       PRES   REMARKS
BAY ST LOUIS   SUNNY     61  21  21 N5        30.35F
BILOXI         SUNNY     61  28  29 VRB7      30.33F
PASCAGOULA     SUNNY     61  27  27 N8        30.34F
GULFPORT       SUNNY     61  28  28 MISG      30.33F
$$



USA.gov is the U.S. government's official web portal to all federal, state and local government web resources and services.